Location: Cheyres
(46.8153°N, 6.7877°E)
Time: 13:18:49
(UTC+00:00)

FENGYUN 1C DEB - Pass Details

Date: 04 December 2021
Orbit: 843 x 915 km, 99.0° (Epoch: 18 January)

Event Time Altitude Azimuth Distance (km) Brightness Sun altitude
Exits shadow 20:10:47 11° 320° (NW) 2,413 ? -44.4°
Drops below altitude 10° 20:11:04 10° 322° (NW) 2,500 ? -44.5°
Sets 20:13:50 0° 335° (NNW) 3,432 ? -44.9°
